Powrót do katalogu

OPS 5111

NAVSTAR 1

AktywnyNawigacjaHEO
NORAD 10684·PAYLOAD·🇺🇸 United States

Wystrzelony Feb 22, 1978 z Vandenberg Space Force Base

Loading…

Następne Przeloty (najbliższe 24 godziny)

TLE

ŚwieżeSource: Space-Track

Epoka: Sep 14, 2026, 06:45 UTC

1 10684U 78020A   26257.28147358 -.00000043  00000-0  00000-0 0  9994
2 10684  64.4155  49.6558 0081657 218.7084 140.7044  1.98072568338202

Śledź OPS 5111 w czasie rzeczywistym z AllMySat

Download on the App Store